Location: Charbonni�res
(45.9952°N, 2.9982°E)
Time: 16:32:32
(UTC+00:00)

Cosmos 1408 Rocket - Pass Details

Date: 29 November 2020
Orbit: 600 x 631 km, 82.6° (Epoch: 17 January)

Event Time Altitude Azimuth Distance (km) Brightness Sun altitude
Rises 04:55:13 0° 187° (S) 2,910 7.0 -22.3°
Reaches altitude 10° 04:57:27 10° 188° (S) 2,007 6.2 -21.9°
Maximum altitude 05:01:55 88° 280° (W) 637 3.5 -21.2°
Drops below altitude 10° 05:06:24 10° 9° (N) 2,015 6.2 -20.4°
Sets 05:08:38 0° 9° (N) 2,923 7.0 -20.0°
